Weather History for CYUX - September, 2012

Change the Weather History Date:

Wednesday, September 19, 2012

  Actual Average (WUND) Record (WUND)
Temperature  
Mean Temperature 34 °F -  
Max Temperature 35 °F - - (-1)
Min Temperature 33 °F - - (-1)
Degree Days  
Heating Degree Days 31    
Moisture  
Dew Point 34 °F    
Average Humidity 100    
Maximum Humidity 100    
Minimum Humidity 100    
Precipitation  
Precipitation 0.00 in - - ()
Sea Level Pressure  
Sea Level Pressure 29.53 in    
Wind  
Wind Speed 6 mph ()    
Max Wind Speed 9 mph    
Max Gust Speed -    
Visibility 3.3 miles    
Events Fog , Rain    
Averages and records for this station are not official NWS values.
T = Trace of Precipitation, MM = Missing Value Source: Averaged Metar Reports

Daily Weather History Graph

Daily Weather History Graph

Search for Another Location

Airport or City:

Trip Planner

Search our weather history database for the weather conditions in past years. The results will help you decide how hot, cold, wet, or windy it might be!

Date:

Astronomy

Sep. 19, 2012 Rise Set
Actual Time 6:56 AM EDT 7:38 PM EDT
Civil Twilight 5:57 AM EDT 8:36 PM EDT
Nautical Twilight 4:42 AM EDT 9:51 PM EDT
Astronomical Twilight 2:55 AM EDT 11:33 PM EDT
Moon 2:07 PM EDT (9/19) 6:38 PM EDT (9/19)
Length of Visible Light 14h 38m
Length of Day
12h 41m
Waxing Crescent, 17% of the Moon is Illuminated
Sep 19
Waxing Crescent
Sep 22
First Quarter
Sep 29
Full
Oct 8
Last Quarter
Oct 15
New

Hourly Weather History & Observations

Time (EDT) Temp. Windchill Dew Point Humidity Pressure Visibility Wind Dir Wind Speed Gust Speed Precip Events Conditions
12:11 AM 33.8 °F 27.7 °F 33.8 °F 100% 29.49 in 9.0 mi ENE 6.9 mph - N/A   Overcast
12:46 AM 33.8 °F 27.0 °F 33.8 °F 100% 29.49 in 9.0 mi NE 8.1 mph - N/A   Overcast
1:00 AM 33.8 °F 27.7 °F 33.8 °F 100% 29.49 in 9.0 mi NE 6.9 mph - N/A   Overcast
1:04 AM 33.8 °F 27.0 °F 33.8 °F 100% 29.49 in 9.0 mi NNE 8.1 mph - N/A Rain Light Rain
1:13 AM 33.8 °F 27.7 °F 33.8 °F 100% 29.49 in 9.0 mi NE 6.9 mph - N/A   Overcast
1:16 AM 33.8 °F 27.7 °F 33.8 °F 100% 29.49 in 9.0 mi NE 6.9 mph - N/A   Overcast
1:47 AM 33.8 °F 26.4 °F 33.8 °F 100% 29.48 in 9.0 mi NE 9.2 mph - N/A Rain Light Rain
1:49 AM 33.8 °F 26.4 °F 33.8 °F 100% 29.48 in 9.0 mi NE 9.2 mph - N/A Rain Light Rain
1:50 AM 33.8 °F 26.4 °F 33.8 °F 100% 29.48 in 9.0 mi NE 9.2 mph - N/A Rain Light Rain
1:51 AM 33.8 °F 26.4 °F 33.8 °F 100% 29.48 in 9.0 mi NE 9.2 mph - N/A Rain Light Rain
1:54 AM 33.8 °F 26.4 °F 33.8 °F 100% 29.48 in 9.0 mi NE 9.2 mph - N/A Rain Light Rain
2:00 AM 33.8 °F 26.4 °F 33.8 °F 100% 29.48 in 9.0 mi NE 9.2 mph - N/A   Overcast
2:05 AM 33.8 °F 26.4 °F 33.8 °F 100% 29.48 in 9.0 mi NE 9.2 mph - N/A   Overcast
3:00 AM 33.8 °F 27.7 °F 33.8 °F 100% 29.48 in 9.0 mi NE 6.9 mph - N/A   Overcast
3:02 AM 33.8 °F 27.7 °F 33.8 °F 100% 29.48 in 4.0 mi NE 6.9 mph - N/A   Overcast
3:04 AM 33.8 °F 27.7 °F 33.8 °F 100% 29.48 in 2.2 mi NE 6.9 mph - N/A   Overcast
3:05 AM 33.8 °F 27.7 °F 33.8 °F 100% 29.48 in 1.8 mi NE 6.9 mph - N/A   Overcast
3:08 AM 33.8 °F 27.7 °F 33.8 °F 100% 29.48 in 1.0 mi NE 6.9 mph - N/A   Overcast
3:11 AM 33.8 °F 27.0 °F 33.8 °F 100% 29.48 in 0.8 mi NE 8.1 mph - N/A   Overcast
3:39 AM 33.8 °F 27.0 °F 33.8 °F 100% 29.48 in 0.8 mi NNE 8.1 mph - N/A   Overcast
3:54 AM 33.8 °F 27.7 °F 33.8 °F 100% 29.48 in 0.8 mi NE 6.9 mph - N/A   Overcast
3:56 AM 33.8 °F 27.7 °F 33.8 °F 100% 29.48 in 0.8 mi NE 6.9 mph - N/A   Overcast
4:00 AM 33.8 °F 27.7 °F 33.8 °F 100% 29.48 in 0.8 mi NE 6.9 mph - N/A   Overcast
4:20 AM 33.8 °F 29.6 °F 33.8 °F 100% 29.48 in 0.5 mi North 4.6 mph - N/A Fog Fog
4:43 AM 33.8 °F 28.6 °F 33.8 °F 100% 29.48 in 0.4 mi NNW 5.8 mph - N/A Fog Fog
5:00 AM 33.8 °F 29.6 °F 33.8 °F 100% 29.49 in 0.4 mi North 4.6 mph - N/A Fog Fog
5:13 AM 33.8 °F 28.6 °F 33.8 °F 100% 29.49 in 0.5 mi North 5.8 mph - N/A Fog Fog
5:39 AM 33.8 °F 28.6 °F 33.8 °F 100% 29.49 in 0.8 mi North 5.8 mph - N/A   Mist
6:00 AM 33.8 °F 29.6 °F 33.8 °F 100% 29.49 in 0.5 mi North 4.6 mph - N/A Fog Fog
7:00 AM 33.8 °F 30.8 °F 33.8 °F 100% 29.50 in 0.1 mi North 3.5 mph - N/A Fog Fog
8:00 AM 33.8 °F 29.6 °F 33.8 °F 100% 29.50 in 0.2 mi NNW 4.6 mph - N/A Fog Light Drizzle
8:44 AM 33.8 °F 27.7 °F 33.8 °F 100% 29.50 in 0.5 mi NNE 6.9 mph - N/A Fog Light Drizzle
9:00 AM 33.8 °F 28.6 °F 33.8 °F 100% 29.51 in 0.1 mi North 5.8 mph - N/A Fog Light Drizzle
9:46 AM 33.8 °F 29.6 °F 33.8 °F 100% 29.52 in 0.5 mi NNW 4.6 mph - N/A Fog Fog
10:00 AM 33.8 °F 29.6 °F 33.8 °F 100% 29.52 in 0.5 mi North 4.6 mph - N/A Fog Fog
10:08 AM 33.8 °F 29.6 °F 33.8 °F 100% 29.52 in 0.1 mi North 4.6 mph - N/A Fog Fog
10:41 AM 33.8 °F 28.6 °F 33.8 °F 100% 29.52 in 0.5 mi North 5.8 mph - N/A Fog Fog
11:00 AM 33.8 °F 29.6 °F 33.8 °F 100% 29.52 in 0.5 mi North 4.6 mph - N/A Fog Fog
11:08 AM 33.8 °F 29.6 °F 33.8 °F 100% 29.52 in 0.4 mi North 4.6 mph - N/A Fog Light Drizzle
11:41 AM 35.6 °F 30.7 °F 35.6 °F 100% 29.52 in 1.0 mi North 5.8 mph - N/A   Light Drizzle
12:00 PM 35.6 °F 30.7 °F 35.6 °F 100% 29.52 in 1.0 mi North 5.8 mph - N/A   Light Drizzle
12:21 PM 35.6 °F 31.7 °F 35.6 °F 100% 29.52 in 3.0 mi North 4.6 mph - N/A   Mostly Cloudy
12:36 PM 33.8 °F 27.7 °F 33.8 °F 100% 29.52 in 2.0 mi NNE 6.9 mph - N/A   Light Drizzle
1:00 PM 33.8 °F 28.6 °F 33.8 °F 100% 29.52 in 2.0 mi NNE 5.8 mph - N/A   Light Drizzle
1:16 PM 33.8 °F 28.6 °F 33.8 °F 100% 29.52 in 3.0 mi North 5.8 mph - N/A   Mostly Cloudy
1:26 PM 35.6 °F 31.7 °F 35.6 °F 100% 29.53 in 10.0 mi North 4.6 mph - N/A   Mostly Cloudy
1:46 PM 33.8 °F 28.6 °F 33.8 °F 100% 29.53 in 2.0 mi NE 5.8 mph - N/A   Mostly Cloudy
2:00 PM 33.8 °F 29.6 °F 33.8 °F 100% 29.53 in 1.0 mi NE 4.6 mph - N/A   Mostly Cloudy
2:31 PM 35.6 °F 32.8 °F 35.6 °F 100% 29.54 in 2.0 mi NE 3.5 mph - N/A   Mostly Cloudy
3:00 PM 35.6 °F 32.8 °F 35.6 °F 100% 29.54 in 3.0 mi ENE 3.5 mph - N/A   Mostly Cloudy
3:37 PM 35.6 °F 30.7 °F 35.6 °F 100% 29.54 in 3.0 mi East 5.8 mph - N/A   Mostly Cloudy
4:00 PM 35.6 °F 30.7 °F 35.6 °F 100% 29.55 in 3.0 mi East 5.8 mph - N/A   Mostly Cloudy
4:25 PM 35.6 °F 31.7 °F 35.6 °F 100% 29.55 in 1.5 mi East 4.6 mph - N/A   Mostly Cloudy
5:00 PM 33.8 °F 28.6 °F 33.8 °F 100% 29.55 in 3.0 mi East 5.8 mph - N/A   Mostly Cloudy
6:00 PM 33.8 °F 30.8 °F 33.8 °F 100% 29.56 in 12.0 mi East 3.5 mph - N/A Fog Mostly Cloudy
6:18 PM 33.8 °F 30.8 °F 33.8 °F 100% 29.56 in 0.8 mi East 3.5 mph - N/A   Mostly Cloudy
7:00 PM 33.8 °F 30.8 °F 33.8 °F 100% 29.57 in 0.8 mi East 3.5 mph - N/A   Mostly Cloudy
7:24 PM 33.8 °F 30.8 °F 33.8 °F 100% 29.57 in 0.6 mi East 3.5 mph - N/A   Mostly Cloudy
7:42 PM 33.8 °F - 33.8 °F 100% 29.57 in 10.0 mi Calm Calm - N/A   Mostly Cloudy
8:00 PM 33.8 °F 29.6 °F 33.8 °F 100% 29.57 in 10.0 mi ENE 4.6 mph - N/A Fog Mostly Cloudy
8:02 PM 33.8 °F 29.6 °F 33.8 °F 100% 29.57 in 1.0 mi ENE 4.6 mph - N/A   Overcast
8:04 PM 33.8 °F 29.6 °F 33.8 °F 100% 29.57 in 0.8 mi NE 4.6 mph - N/A   Overcast
8:08 PM 33.8 °F 29.6 °F 33.8 °F 100% 29.57 in 0.8 mi NE 4.6 mph - N/A   Overcast
8:18 PM 33.8 °F 29.6 °F 33.8 °F 100% 29.57 in 0.8 mi NE 4.6 mph - N/A   Overcast
8:19 PM 33.8 °F 28.6 °F 33.8 °F 100% 29.57 in 0.8 mi NE 5.8 mph - N/A Rain Light Rain
8:31 PM 33.8 °F 28.6 °F 33.8 °F 100% 29.57 in 0.8 mi NE 5.8 mph - N/A   Overcast
8:44 PM 33.8 °F 28.6 °F 33.8 °F 100% 29.57 in 0.8 mi NE 5.8 mph - N/A   Overcast
8:46 PM 33.8 °F 28.6 °F 33.8 °F 100% 29.57 in 0.8 mi NE 5.8 mph - N/A   Overcast
8:47 PM 33.8 °F 28.6 °F 33.8 °F 100% 29.57 in 0.8 mi NE 5.8 mph - N/A   Overcast
8:58 PM 33.8 °F 27.7 °F 33.8 °F 100% 29.57 in 1.0 mi NE 6.9 mph - N/A   Overcast
9:00 PM 33.8 °F 27.7 °F 33.8 °F 100% 29.57 in 0.8 mi NE 6.9 mph - N/A   Overcast
9:11 PM 33.8 °F 27.7 °F 33.8 °F 100% 29.57 in 1.2 mi ENE 6.9 mph - N/A   Overcast
9:15 PM 33.8 °F 27.7 °F 33.8 °F 100% 29.57 in 2.5 mi ENE 6.9 mph - N/A   Overcast
9:16 PM 33.8 °F 27.7 °F 33.8 °F 100% 29.57 in 3.0 mi ENE 6.9 mph - N/A   Overcast
9:24 PM 33.8 °F 27.7 °F 33.8 °F 100% 29.57 in 2.2 mi ENE 6.9 mph - N/A   Overcast
9:32 PM 33.8 °F 27.7 °F 33.8 °F 100% 29.57 in 3.0 mi ENE 6.9 mph - N/A   Overcast
9:41 PM 33.8 °F 27.7 °F 33.8 °F 100% 29.57 in 2.2 mi ENE 6.9 mph - N/A   Overcast
9:42 PM 33.8 °F 27.7 °F 33.8 °F 100% 29.57 in 2.0 mi ENE 6.9 mph - N/A   Overcast
9:50 PM 33.8 °F 28.6 °F 33.8 °F 100% 29.57 in 1.5 mi ENE 5.8 mph - N/A   Overcast
10:00 PM 33.8 °F 29.6 °F 33.8 °F 100% 29.57 in 1.2 mi ENE 4.6 mph - N/A   Overcast
10:20 PM 33.8 °F 30.8 °F 33.8 °F 100% 29.57 in 2.5 mi ENE 3.5 mph - N/A   Overcast
10:21 PM 33.8 °F 30.8 °F 33.8 °F 100% 29.57 in 3.0 mi ENE 3.5 mph - N/A   Overcast
10:25 PM 33.8 °F 29.6 °F 33.8 °F 100% 29.57 in 6.0 mi ENE 4.6 mph - N/A   Overcast
10:31 PM 33.8 °F 29.6 °F 33.8 °F 100% 29.57 in 9.0 mi ENE 4.6 mph - N/A   Overcast
11:00 PM 33.8 °F 28.6 °F 33.8 °F 100% 29.57 in 9.0 mi ENE 5.8 mph - N/A   Overcast
11:06 PM 33.8 °F 28.6 °F 33.8 °F 100% 29.57 in 5.0 mi ENE 5.8 mph - N/A   Overcast
11:12 PM 33.8 °F 28.6 °F 33.8 °F 100% 29.57 in 3.0 mi ENE 5.8 mph - N/A   Overcast